When you browse on this site, cookies collect data to enhance your experience and personalize the content and advertising you see.
Visit our Privacy Policy to learn more. By continuing to use the site, you agree to this use of cookies and data.
  • In Austria
  • List of Countries
  • For 7 days
  • Water Temperature
  • Satellite Maps
  • Weather Map
  • News
  • Weather Widgets
  • user-avatar
    Login

    Hourly Weather Gedzhon

    Today, 21 May, Tuesday

    Time Temperature Precipitation Wind Pressure Humidity
    00:00 +9°C° 0 mm 2 mps 741 mmHg 77%
    01:00 +8°C° 0 mm 2 mps 741 mmHg 79%
    02:00 +8°C° 0 mm 2 mps 741 mmHg 81%
    03:00 +8°C° 0 mm 2 mps 741 mmHg 81%
    04:00 +8°C° 0 mm 2 mps 741 mmHg 81%
    05:00 +8°C° 0 mm 2 mps 741 mmHg 81%
    06:00 +12°C° 0 mm 2 mps 741 mmHg 73%
    07:00 +14°C° 0 mm 3 mps 741 mmHg 66%
    08:00 +17°C° 0 mm 4 mps 740 mmHg 58%
    09:00 +19°C° 0 mm 4 mps 740 mmHg 49%
    10:00 +21°C° 0 mm 5 mps 740 mmHg 41%
    11:00 +23°C° 0 mm 5 mps 740 mmHg 33%
    12:00 +23°C° 0 mm 6 mps 740 mmHg 32%
    13:00 +23°C° 0 mm 6 mps 740 mmHg 30%
    14:00 +25°C° 0 mm 5 mps 739 mmHg 28%
    15:00 +23°C° 0 mm 5 mps 739 mmHg 33%
    16:00 +22°C° 0 mm 5 mps 739 mmHg 37%
    17:00 +20°C° 0 mm 4 mps 739 mmHg 42%
    18:00 +18°C° 0 mm 4 mps 739 mmHg 53%
    19:00 +16°C° 0 mm 3 mps 739 mmHg 63%
    20:00 +14°C° 0 mm 2 mps 740 mmHg 74%
    21:00 +13°C° 0 mm 2 mps 740 mmHg 78%
    22:00 +12°C° 0 mm 2 mps 740 mmHg 83%
    23:00 +12°C° 0 mm 2 mps 740 mmHg 88%

    Tomorrow, 22 May, Wednesday

    Time Temperature Precipitation Wind Pressure Humidity
    00:00 +10°C° 0 mm 2 mps 740 mmHg 90%
    01:00 +10°C° 0 mm 2 mps 740 mmHg 91%
    02:00 +10°C° 0 mm 2 mps 740 mmHg 92%
    03:00 +10°C° 0 mm 2 mps 740 mmHg 90%
    04:00 +10°C° 0 mm 2 mps 740 mmHg 89%
    05:00 +10°C° 0 mm 2 mps 740 mmHg 87%
    06:00 +14°C° 0 mm 2 mps 740 mmHg 75%
    07:00 +17°C° 0 mm 2 mps 740 mmHg 64%
    08:00 +20°C° 0 mm 3 mps 740 mmHg 52%
    09:00 +22°C° 0 mm 3 mps 740 mmHg 46%
    10:00 +23°C° 0 mm 4 mps 740 mmHg 40%
    11:00 +26°C° 0 mm 5 mps 740 mmHg 33%
    12:00 +27°C° 0 mm 5 mps 740 mmHg 32%
    13:00 +27°C° 0 mm 5 mps 740 mmHg 30%
    14:00 +27°C° 0 mm 5 mps 740 mmHg 28%
    15:00 +26°C° 0 mm 5 mps 740 mmHg 34%
    16:00 +25°C° 0 mm 4 mps 739 mmHg 39%
    17:00 +24°C° 0 mm 3 mps 739 mmHg 45%
    18:00 +20°C° 0 mm 3 mps 740 mmHg 53%
    19:00 +18°C° 0 mm 2 mps 740 mmHg 61%
    20:00 +16°C° 0 mm 2 mps 740 mmHg 69%
    21:00 +15°C° 0 mm 2 mps 740 mmHg 72%
    22:00 +14°C° 0 mm 2 mps 741 mmHg 74%
    23:00 +14°C° 0 mm 1 mps 741 mmHg 77%

    Day after tomorrow, 23 May, Thursday

    Time Temperature Precipitation Wind Pressure Humidity
    00:00 +13°C° 0 mm 1 mps 741 mmHg 78%
    01:00 +13°C° 0 mm 1 mps 741 mmHg 79%
    02:00 +12°C° 0 mm 1 mps 741 mmHg 80%
    03:00 +12°C° 0 mm 1 mps 741 mmHg 80%
    04:00 +12°C° 0 mm 1 mps 741 mmHg 80%
    05:00 +12°C° 0 mm 1 mps 742 mmHg 81%
    06:00 +15°C° 0 mm 1 mps 742 mmHg 73%
    07:00 +19°C° 0 mm 1 mps 742 mmHg 64%
    08:00 +22°C° 0 mm 1 mps 743 mmHg 56%
    09:00 +24°C° 0 mm 1 mps 743 mmHg 49%
    10:00 +26°C° 0 mm 2 mps 743 mmHg 41%
    11:00 +28°C° 0 mm 2 mps 743 mmHg 34%
    12:00 +29°C° 0 mm 2 mps 742 mmHg 31%
    13:00 +29°C° 0 mm 3 mps 742 mmHg 28%
    14:00 +30°C° 0 mm 3 mps 742 mmHg 26%
    15:00 +29°C° 0 mm 2 mps 742 mmHg 31%
    16:00 +28°C° 0 mm 2 mps 742 mmHg 36%
    17:00 +27°C° 0 mm 2 mps 742 mmHg 42%
    18:00 +25°C° 0 mm 2 mps 742 mmHg 47%
    19:00 +22°C° 0 mm 1 mps 742 mmHg 52%
    20:00 +20°C° 0 mm 1 mps 742 mmHg 58%
    21:00 +19°C° 0 mm 1 mps 743 mmHg 61%
    22:00 +18°C° 0 mm 1 mps 743 mmHg 64%
    23:00 +16°C° 0 mm 1 mps 743 mmHg 66%

    24 May, Friday

    Time Temperature Precipitation Wind Pressure Humidity
    00:00 +16°C° 0 mm 1 mps 743 mmHg 68%
    01:00 +16°C° 0 mm 1 mps 743 mmHg 69%
    02:00 +15°C° 0 mm 1 mps 743 mmHg 71%
    03:00 +15°C° 0 mm 1 mps 743 mmHg 71%
    04:00 +15°C° 0 mm 1 mps 743 mmHg 71%
    05:00 +15°C° 0 mm 1 mps 743 mmHg 71%
    06:00 +19°C° 0 mm 1 mps 743 mmHg 64%
    07:00 +21°C° 0 mm 2 mps 744 mmHg 58%
    08:00 +25°C° 0 mm 2 mps 744 mmHg 51%
    09:00 +27°C° 0 mm 2 mps 744 mmHg 48%
    10:00 +28°C° 0 mm 3 mps 744 mmHg 45%
    11:00 +30°C° 0 mm 3 mps 744 mmHg 43%
    12:00 +30°C° 0 mm 4 mps 743 mmHg 42%
    13:00 +30°C° 0 mm 4 mps 743 mmHg 42%
    14:00 +30°C° 0 mm 4 mps 743 mmHg 42%
    15:00 +29°C° 0 mm 4 mps 743 mmHg 46%
    16:00 +28°C° 0 mm 4 mps 743 mmHg 51%
    17:00 +26°C° 0 mm 3 mps 743 mmHg 55%
    18:00 +24°C° 0 mm 3 mps 743 mmHg 62%
    19:00 +20°C° 0 mm 2 mps 743 mmHg 68%
    20:00 +18°C° 0 mm 2 mps 744 mmHg 75%
    21:00 +18°C° 0 mm 2 mps 744 mmHg 76%
    22:00 +18°C° 0 mm 1 mps 744 mmHg 77%
    23:00 +16°C° 0 mm 1 mps 745 mmHg 79%

    25 May, Saturday

    Time Temperature Precipitation Wind Pressure Humidity
    00:00 +16°C° 0 mm 1 mps 745 mmHg 78%
    01:00 +16°C° 0 mm 1 mps 745 mmHg 78%
    02:00 +16°C° 0 mm 1 mps 745 mmHg 77%
    03:00 +16°C° 0 mm 1 mps 745 mmHg 75%
    04:00 +16°C° 0 mm 1 mps 745 mmHg 73%
    05:00 +16°C° 0 mm 1 mps 745 mmHg 71%
    06:00 +20°C° 0 mm 1 mps 746 mmHg 62%
    07:00 +23°C° 0 mm 1 mps 746 mmHg 53%
    08:00 +25°C° 0 mm 1 mps 746 mmHg 45%
    09:00 +27°C° 0 mm 1 mps 746 mmHg 40%
    10:00 +29°C° 0 mm 1 mps 746 mmHg 35%
    11:00 +31°C° 0 mm 1 mps 746 mmHg 30%
    12:00 +31°C° 0 mm 2 mps 746 mmHg 30%
    13:00 +31°C° 0 mm 2 mps 746 mmHg 30%
    14:00 +32°C° 0 mm 2 mps 746 mmHg 29%
    15:00 +30°C° 0 mm 2 mps 746 mmHg 36%
    16:00 +29°C° 0 mm 1 mps 746 mmHg 43%
    17:00 +27°C° 0 mm 1 mps 746 mmHg 49%
    18:00 +25°C° 0 mm 1 mps 746 mmHg 53%
    19:00 +24°C° 0 mm 1 mps 746 mmHg 56%
    20:00 +20°C° 0 mm 0 mps 746 mmHg 60%
    21:00 +20°C° 0 mm 0 mps 746 mmHg 60%
    22:00 +19°C° 0 mm 0 mps 746 mmHg 60%
    23:00 +19°C° 0 mm 0 mps 746 mmHg 61%

    26 May, Sunday

    Time Temperature Precipitation Wind Pressure Humidity
    00:00 +19°C° 0 mm 0 mps 746 mmHg 61%
    01:00 +19°C° 0 mm 0 mps 746 mmHg 61%
    02:00 +19°C° 0 mm 0 mps 745 mmHg 61%
    03:00 +21°C° 0 mm 1 mps 745 mmHg 61%
    04:00 +20°C° 0 mm 1 mps 745 mmHg 62%
    05:00 +20°C° 0 mm 1 mps 745 mmHg 62%
    06:00 +22°C° 0 mm 1 mps 746 mmHg 58%
    07:00 +24°C° 0 mm 2 mps 746 mmHg 55%
    08:00 +26°C° 0 mm 2 mps 746 mmHg 51%
    09:00 +26°C° 0 mm 2 mps 746 mmHg 50%
    10:00 +26°C° 0 mm 1 mps 746 mmHg 49%
    11:00 +25°C° 0 mm 0 mps 746 mmHg 48%
    12:00 +27°C° 0 mm 2 mps 745 mmHg 43%
    13:00 +28°C° 0 mm 3 mps 745 mmHg 39%
    14:00 +29°C° 0 mm 4 mps 744 mmHg 34%
    15:00 +27°C° 0.1 mm 3 mps 744 mmHg 40%
    16:00 +25°C° 0.1 mm 2 mps 744 mmHg 47%
    17:00 +21°C° 0.1 mm 0 mps 744 mmHg 53%
    18:00 +22°C° 0.1 mm 1 mps 744 mmHg 56%
    19:00 +22°C° 0.1 mm 1 mps 744 mmHg 58%
    20:00 +21°C° 0.1 mm 1 mps 744 mmHg 61%
    21:00 +21°C° 0 mm 1 mps 744 mmHg 65%
    22:00 +21°C° 0 mm 1 mps 744 mmHg 70%
    23:00 +20°C° 0 mm 1 mps 743 mmHg 75%
    Show more